Wind_Speed
14 13 13 12 13 13 13 14 14 15 15 16 16 16 16 16 16 16 16 16 16 16 16 15 15 16 17 18 20 21 25 27 25 19 14 15 11 8 13 15 13 11 8 7 8 5 1 3 4 7 7 4 1 2 4 2 2 3 3 4 5 5 5 5 6 5 0 2 2 4 3 5 6 2 2 3 7 10 9 6 7 7 8 12 19 27 27 24
16 14 13 13 13 13 13 13 14 15 15 16 16 16 16 16 16 16 16 16 16 16 16 14 14 15 16 18 20 22 26 26 21 18 15 9 6 7 13 15 15 15 12 7 8 8 5 4 5 7 5 3 2 2 4 2 3 4 2 4 6 4 3 3 4 3 2 4 7 5 1 4 6 1 1 3 8 11 11 8 9 12 13 17 23 26 26 25
18 16 14 14 13 13 13 13 13 14 15 15 16 15 16 16 16 16 17 16 15 15 16 14 14 14 15 18 19 22 25 22 14 10 3 4 7 12 13 15 15 16 15 9 7 10 6 5 9 7 3 3 2 2 4 3 4 3 2 6 5 3 2 3 4 4 4 5 8 6 1 4 4 1 2 6 9 10 12 11 12 15 17 18 20 23 25 25
18 17 17 15 14 14 13 13 13 13 14 15 15 16 15 16 17 17 16 17 16 14 15 15 14 14 15 17 18 23 21 13 5 3 5 5 11 14 12 15 14 16 16 12 8 8 5 6 9 5 2 3 2 3 5 5 4 3 4 5 2 4 5 4 6 7 5 3 5 5 4 5 2 2 4 10 10 8 11 10 9 16 23 22 21 21 24 24
18 18 18 17 15 14 14 13 13 13 13 14 15 15 16 16 16 16 15 16 16 14 14 15 15 14 15 16 18 21 13 4 2 5 6 7 13 16 11 13 13 17 18 18 11 6 5 6 7 3 2 3 4 4 5 6 3 3 5 2 3 4 5 3 4 5 3 2 3 5 6 6 3 3 7 14 11 4 7 8 6 14 23 24 23 21 21 21
18 18 18 17 16 16 15 14 13 13 13 14 14 15 15 15 15 16 15 15 15 13 14 15 14 14 14 15 18 14 5 2 1 3 6 9 14 20 12 8 12 17 20 20 12 7 5 5 7 5 3 3 6 6 4 5 4 4 5 1 3 4 3 2 2 3 1 1 5 5 4 5 4 4 8 13 6 1 3 7 10 14 19 22 22 20 20 19
18 18 18 18 17 17 16 15 13 13 13 13 14 14 14 15 15 15 15 14 14 14 14 14 14 13 13 15 13 5 1 7 7 5 5 8 12 21 15 4 8 18 21 19 12 9 7 8 9 6 5 4 5 6 3 5 5 6 5 2 4 4 4 4 3 3 0 4 7 3 2 5 6 4 5 7 1 2 6 13 16 16 19 21 20 19 20 20
18 18 18 18 18 18 18 17 15 14 13 13 13 13 13 14 14 14 14 14 14 14 14 14 13 12 12 12 8 3 4 10 11 10 8 8 12 18 13 5 8 17 20 20 16 11 8 10 10 6 6 4 5 7 4 6 7 9 7 2 2 3 4 4 3 5 3 5 5 2 4 5 5 3 5 5 4 7 11 16 19 19 19 19 19 20 19 19
19 19 18 18 18 18 19 18 16 15 14 13 14 14 13 13 14 14 13 13 13 14 14 13 12 11 10 7 5 5 6 8 11 12 9 10 14 16 11 7 7 14 13 18 18 13 9 9 9 6 5 4 6 8 6 7 6 7 8 3 4 4 4 3 4 5 4 4 2 1 3 1 1 3 5 5 6 10 14 17 20 20 20 18 17 19 19 17
20 19 18 19 18 18 19 18 17 16 15 14 14 14 13 12 13 13 13 13 12 12 13 13 11 10 8 4 3 5 4 2 5 8 7 14 18 15 11 8 4 9 7 11 14 13 8 6 7 4 3 4 6 6 6 7 3 3 6 5 8 7 5 2 4 4 2 4 4 4 3 4 2 1 3 5 8 12 15 18 19 20 19 18 17 16 15 15
21 21 20 19 19 19 19 18 18 17 16 14 14 14 13 13 13 13 14 15 14 12 12 12 11 9 7 3 3 7 4 1 2 5 14 23 23 18 15 10 1 6 7 8 11 14 9 5 7 3 1 5 7 5 4 5 2 2 4 4 5 5 4 4 5 5 3 4 4 6 3 2 2 2 3 8 11 12 16 18 18 19 17 17 17 15 12 12
21 21 21 21 20 19 19 19 18 17 17 15 14 14 14 14 13 14 14 14 15 13 11 11 11 9 8 7 11 16 11 8 12 20 26 28 27 22 17 12 4 5 8 8 10 15 9 5 9 5 1 4 7 4 3 3 2 2 3 3 3 2 6 7 5 4 4 3 3 6 3 4 4 1 4 10 11 12 15 17 17 17 15 15 14 12 9 8
21 21 21 21 21 20 20 20 19 18 17 16 15 14 15 14 12 13 12 13 14 14 13 12 11 9 8 8 13 23 24 23 27 32 32 29 25 18 12 8 4 5 8 8 10 12 8 4 4 3 1 3 5 2 1 3 1 3 3 3 3 3 5 5 3 3 5 3 4 6 3 4 3 0 6 12 12 14 14 14 16 15 14 12 10 9 7 6
21 20 20 21 21 21 20 20 19 18 18 17 16 14 15 15 14 13 13 13 13 13 13 12 10 8 8 9 15 26 28 28 32 31 26 20 16 11 8 6 3 6 7 7 7 9 8 3 3 2 0 1 2 1 1 2 1 4 3 2 3 4 3 1 2 5 7 2 4 6 5 2 4 3 6 7 6 9 13 15 15 15 14 12 8 8 7 8
21 20 20 20 21 22 21 20 20 19 18 18 17 15 15 15 16 15 15 15 14 14 13 11 9 6 7 11 17 21 16 15 21 18 12 11 11 7 5 7 7 7 7 6 6 7 7 5 3 2 1 0 1 1 2 2 1 3 4 4 3 4 2 1 2 7 7 2 3 5 4 2 4 5 6 8 5 2 9 15 16 16 15 12 8 8 9 9
21 21 20 20 20 22 21 20 21 20 19 18 17 17 17 17 17 17 18 18 16 14 10 8 5 5 6 8 8 9 7 8 11 9 6 6 8 4 5 8 9 7 7 6 6 7 7 5 2 1 1 2 3 4 4 3 3 3 4 4 4 6 3 0 2 3 3 3 3 3 2 2 4 5 7 10 12 8 9 13 14 15 14 10 8 9 10 9
21 21 21 20 20 21 20 19 20 20 19 18 17 17 19 18 18 20 22 19 16 12 9 6 3 5 7 8 8 6 5 6 6 6 5 4 4 7 7 5 6 7 7 6 7 7 5 3 3 1 1 2 3 5 5 7 6 3 3 2 2 4 4 2 2 0 2 3 5 3 2 2 5 8 9 9 13 12 11 13 13 12 9 6 7 10 11 9
21 21 21 20 20 20 20 19 19 20 19 18 17 17 19 19 18 18 15 8 5 6 8 7 3 3 6 7 8 6 4 6 7 7 6 4 4 9 7 2 5 9 9 6 4 5 3 2 3 2 3 4 6 8 7 5 5 6 6 5 2 2 3 4 2 1 2 4 5 6 3 3 6 10 9 9 12 11 11 13 12 10 8 7 7 6 9 9
22 21 20 21 20 20 20 19 18 19 18 18 16 16 16 14 11 8 2 5 6 3 4 6 8 3 2 4 6 7 8 9 8 6 4 4 7 9 6 2 6 8 8 5 5 6 4 3 3 6 8 8 8 9 6 3 6 9 7 6 5 4 3 3 1 1 3 5 6 7 6 6 9 11 9 10 10 8 8 9 7 9 12 12 9 5 3 7
23 22 21 21 20 20 20 19 18 17 17 16 12 11 9 4 3 2 3 7 7 5 3 5 12 8 7 1 0 7 8 5 4 2 3 5 9 9 5 3 5 5 6 8 8 6 6 6 8 9 8 9 9 8 5 4 6 9 7 6 5 4 4 2 2 1 2 5 4 4 6 9 11 12 10 10 9 7 8 7 9 13 12 10 5 5 4 3
23 23 22 21 21 20 20 18 17 16 15 12 8 6 2 2 1 1 1 6 11 13 12 10 15 15 11 6 2 10 7 5 6 5 4 5 9 10 6 5 8 6 5 8 8 4 6 9 9 6 6 10 10 7 6 5 5 6 7 8 5 4 4 2 2 1 1 4 2 2 7 9 10 11 9 9 7 5 5 8 13 13 10 9 7 2 2 1
23 22 22 22 21 20 19 18 16 15 13 8 8 6 4 5 4 2 2 6 11 16 18 16 15 16 17 15 9 6 5 6 9 7 5 8 7 6 6 8 10 7 5 7 7 6 8 8 6 7 7 10 9 7 7 6 5 3 4 7 6 4 1 2 1 3 1 2 2 4 7 6 4 4 6 7 5 3 5 9 11 13 12 10 8 7 4 3
21 21 21 20 20 19 17 17 15 14 11 7 9 8 5 5 3 2 2 5 9 12 16 17 16 16 17 16 12 7 4 6 8 6 6 12 5 3 7 10 10 8 9 10 9 8 7 5 8 9 9 12 9 9 9 6 4 2 3 6 6 3 1 3 1 4 3 2 3 6 5 4 3 4 6 6 6 5 8 10 9 10 11 9 9 8 8 9
19 19 18 18 18 16 15 16 14 13 12 11 12 12 9 7 5 5 3 4 8 8 12 17 15 14 14 9 8 12 10 7 6 4 6 12 6 3 6 8 10 10 9 9 9 8 4 5 11 10 11 14 11 10 12 9 5 2 2 3 4 4 2 1 1 2 1 2 5 7 5 3 4 5 6 5 6 6 8 11 9 9 9 8 8 8 9 10
18 17 16 16 15 14 14 14 12 12 12 11 12 13 10 8 7 5 1 3 6 5 6 11 10 9 9 8 9 12 8 7 9 6 5 11 8 5 4 4 6 10 11 9 6 6 3 4 11 12 11 14 12 11 13 11 7 3 3 4 4 5 3 2 2 0 2 3 3 3 5 4 4 7 7 5 7 7 7 11 11 11 11 10 11 11 10 8
18 16 15 14 13 12 11 7 6 9 9 9 8 6 4 3 3 5 2 3 5 3 4 6 6 7 10 10 11 10 5 6 12 12 8 9 9 4 4 4 2 6 11 8 3 3 3 5 10 13 12 13 12 10 11 12 8 5 5 6 5 3 3 2 2 1 2 3 1 1 5 3 4 8 9 8 9 9 8 12 12 11 12 12 13 13 12 10
16 15 14 13 12 10 6 3 4 5 4 6 7 4 2 2 5 6 3 3 4 3 5 2 3 9 9 10 15 11 4 2 5 10 10 9 8 3 4 7 4 4 7 6 4 2 6 9 9 12 13 12 11 9 9 11 9 4 5 9 7 4 3 2 1 0 0 2 0 1 2 2 3 7 9 10 11 10 10 12 12 12 13 13 14 14 13 12
15 14 13 12 11 9 7 6 5 4 3 4 3 1 2 3 6 6 3 3 2 3 4 2 3 8 5 10 17 8 1 4 4 7 12 12 7 2 4 7 6 9 8 8 7 2 6 11 10 12 12 9 8 7 9 11 7 3 7 9 7 5 4 2 1 1 2 2 4 4 3 4 2 3 8 11 11 11 12 13 12 14 16 15 16 16 14 14
14 12 11 11 11 10 10 10 8 7 7 4 2 6 1 6 4 3 2 2 2 3 3 4 5 6 5 9 14 7 2 2 1 4 10 10 6 2 3 4 7 12 8 6 6 3 3 9 10 12 10 7 7 9 12 12 5 5 9 8 4 3 3 1 2 2 1 3 7 6 7 6 2 3 8 10 10 11 11 12 13 14 17 17 16 16 14 13
13 11 10 10 10 8 7 11 13 12 10 8 7 6 4 6 2 3 3 2 0 2 2 3 3 6 9 10 10 8 3 2 2 6 7 6 5 3 1 3 5 8 6 3 5 2 1 4 7 8 6 6 8 9 12 11 7 9 10 7 5 2 2 1 0 0 2 6 4 7 8 7 4 4 8 8 9 14 13 12 14 14 16 17 15 15 14 14
14 11 9 9 8 5 3 5 9 9 8 8 6 2 5 3 2 4 3 1 1 2 2 3 4 8 11 9 6 8 5 2 4 9 7 6 7 5 4 5 4 6 6 6 6 3 3 5 5 3 3 7 9 9 8 8 10 11 7 7 6 3 2 1 1 1 5 6 2 6 8 8 6 4 7 9 10 16 16 14 17 18 17 17 14 14 15 14
16 13 9 7 7 6 6 4 2 3 5 6 4 2 3 1 3 4 1 2 0 2 2 3 6 7 9 6 4 7 5 1 5 10 9 9 7 5 6 6 7 7 8 9 7 4 4 4 2 2 4 9 11 9 6 5 9 10 7 8 8 5 4 4 4 4 6 3 2 2 6 6 5 2 7 13 13 16 17 15 20 22 20 18 14 13 13 13
18 15 9 6 6 6 8 6 3 4 2 2 3 2 2 2 3 5 2 3 1 1 3 2 2 5 8 5 4 7 3 1 6 8 9 10 7 4 3 2 4 4 4 9 9 7 4 0 2 5 5 8 12 12 9 7 9 11 10 11 10 7 7 8 7 4 4 2 2 1 4 4 2 2 5 11 12 14 15 13 17 20 20 18 13 12 13 12
18 15 10 6 5 6 7 6 6 3 3 2 3 2 2 4 2 3 2 2 2 2 3 2 1 3 8 3 3 9 4 1 7 9 8 9 8 7 5 3 3 2 6 9 6 8 8 3 6 7 3 7 12 10 8 9 8 7 5 7 8 6 5 6 6 4 2 3 3 3 3 3 2 2 3 5 3 6 10 12 14 14 13 13 11 12 12 12
17 13 8 4 4 5 5 5 7 6 4 2 3 3 4 3 3 1 0 3 3 3 5 4 1 5 6 1 3 10 4 1 8 9 7 9 8 7 6 5 3 2 8 9 3 5 8 3 3 3 1 9 11 4 5 10 9 5 2 4 6 5 3 2 1 0 1 2 2 3 2 1 1 2 2 2 2 6 11 14 16 13 11 12 11 11 13 12
16 12 6 4 5 3 2 4 7 7 5 2 3 3 2 2 3 3 3 4 2 4 7 4 2 3 3 2 4 10 5 1 8 8 5 7 7 5 5 3 2 3 7 7 2 4 7 4 2 3 3 8 11 7 7 9 7 4 4 6 4 3 4 3 1 2 1 3 3 3 2 1 1 1 3 7 8 11 13 15 17 15 14 14 11 11 12 11
16 10 5 5 6 4 1 4 7 7 5 2 2 2 1 1 3 3 3 3 1 3 5 2 2 2 2 3 3 8 6 3 7 7 5 6 6 6 7 4 2 3 4 4 2 1 5 5 3 6 8 6 5 9 10 7 5 5 6 6 5 4 1 1 2 2 3 6 3 2 3 4 4 3 7 10 11 13 15 16 16 16 16 15 12 12 13 13
13 6 2 4 6 5 1 5 7 5 2 1 2 2 1 1 4 2 2 1 1 3 4 4 3 3 3 3 1 5 6 5 7 7 6 6 3 6 9 5 4 5 3 4 3 1 4 5 3 7 10 6 3 7 10 5 2 3 5 6 5 4 4 3 2 4 5 6 3 2 3 4 5 5 10 13 13 15 16 16 16 17 17 14 13 13 14 15
7 3 1 3 8 4 4 6 5 3 2 2 2 2 0 3 5 3 2 1 2 2 4 5 3 3 3 2 2 2 2 4 8 5 4 5 2 5 11 6 4 6 4 4 5 2 3 4 5 5 4 7 6 7 10 9 2 2 7 7 3 3 5 4 2 2 4 5 3 3 3 2 5 8 13 16 17 18 18 17 17 18 16 13 14 14 14 14
4 1 1 7 9 3 9 6 3 2 1 1 1 1 1 3 5 4 3 2 2 1 2 4 3 3 3 3 2 2 1 3 7 4 3 6 3 4 9 8 7 8 5 4 4 3 1 3 5 4 2 6 8 6 9 11 7 7 10 9 6 2 2 3 2 1 2 4 3 3 3 2 2 7 15 19 20 21 22 20 18 17 16 15 15 15 14 14
2 0 2 8 3 11 10 3 1 1 1 1 1 1 2 3 5 4 3 2 0 2 2 3 2 2 2 2 3 2 2 2 4 2 2 7 6 2 6 9 11 10 6 5 5 3 2 2 4 5 4 6 6 4 6 11 11 9 9 8 8 4 3 6 6 2 0 1 2 2 2 1 1 2 10 16 18 20 22 20 16 15 16 16 16 16 16 16
2 1 4 5 7 12 3 0 1 1 1 1 3 2 3 3 4 3 3 2 1 1 2 2 2 2 1 0 2 2 1 2 3 2 2 6 7 4 6 9 12 12 8 5 5 3 1 3 3 4 4 4 3 3 4 11 10 7 6 6 5 4 6 9 8 4 3 1 1 1 1 1 2 2 4 8 10 14 17 16 14 14 15 15 16 17 18 17
2 2 5 1 9 6 2 1 1 1 2 3 4 3 3 3 3 3 3 3 2 1 1 2 3 2 0 0 2 2 1 1 2 2 2 4 4 3 7 9 11 13 10 5 5 5 3 3 4 4 2 2 1 1 1 7 8 6 7 6 6 6 6 5 2 4 4 3 2 2 2 1 1 3 3 4 6 11 14 14 14 14 13 15 18 18 18 18
2 2 3 1 7 3 3 1 1 1 2 4 4 4 4 3 4 4 3 2 1 1 2 2 2 3 3 2 2 2 2 1 1 1 2 2 1 2 7 10 11 12 10 5 5 5 3 2 4 5 6 5 5 4 4 7 9 8 7 8 8 6 4 3 2 3 5 7 7 6 3 2 1 1 3 7 9 12 13 13 14 14 12 15 16 16 17 18
2 1 1 1 4 2 2 2 3 2 2 3 3 5 4 2 3 4 3 2 2 1 1 2 3 4 4 3 3 2 1 1 1 1 2 1 1 2 6 10 11 10 9 8 9 6 2 2 4 5 7 9 9 7 6 5 5 5 7 11 11 10 9 6 4 5 7 6 8 8 4 3 2 4 9 11 12 14 14 14 14 14 15 15 15 15 17 18
1 1 1 1 2 2 2 3 4 3 3 3 3 3 2 1 2 3 4 4 3 2 2 3 3 4 3 2 2 1 1 1 2 2 3 1 1 1 3 8 10 11 10 11 12 7 1 2 4 4 5 6 5 3 2 4 6 6 9 13 12 11 10 6 4 6 6 5 6 7 4 6 6 9 13 14 14 13 15 16 14 14 16 16 15 16 15 13
1 1 1 1 1 3 4 4 4 4 3 3 3 3 2 3 3 1 1 1 1 2 3 3 3 3 1 0 0 1 1 0 2 2 2 1 0 2 2 4 7 11 12 12 12 6 1 3 4 4 4 2 2 4 3 5 9 9 9 11 11 9 8 8 7 5 5 5 6 4 7 8 10 13 16 17 15 14 15 16 15 15 16 16 17 17 15 14
1 1 1 2 1 2 2 3 4 5 5 4 3 3 4 4 4 2 1 1 1 2 2 2 3 5 4 2 0 1 1 0 1 1 1 1 1 1 3 3 2 7 9 10 8 4 3 4 3 3 4 2 3 2 3 3 4 5 7 10 12 11 11 13 10 5 8 7 5 6 10 9 9 15 20 19 17 16 16 14 13 14 15 16 18 18 18 18
1 1 1 2 2 3 4 4 4 5 5 4 3 3 4 4 4 2 1 0 2 3 5 3 2 2 4 4 1 1 1 1 1 1 2 2 1 1 3 4 2 2 6 8 6 2 2 4 4 4 4 4 3 2 2 3 2 2 3 6 9 12 13 14 9 7 9 7 1 8 13 8 4 12 18 16 13 12 12 11 12 15 15 16 18 19 20 20
1 2 2 2 3 4 5 4 4 4 3 3 3 3 3 5 5 3 1 2 2 1 5 4 4 5 1 4 4 3 3 1 1 1 2 2 2 2 1 2 2 3 6 7 5 2 3 3 3 4 3 3 3 3 2 4 4 3 2 3 6 10 12 13 10 8 8 7 3 7 9 4 1 6 12 13 11 11 12 14 15 16 16 17 18 18 18 18
3 4 3 4 4 3 3 2 2 3 3 3 3 3 3 4 4 4 4 4 5 4 4 2 6 7 3 2 4 5 5 4 3 3 2 2 2 2 1 1 1 4 6 6 3 3 4 2 2 3 4 2 1 1 3 5 5 3 3 4 7 9 8 8 6 5 8 7 6 6 6 4 4 9 12 13 14 15 16 16 16 15 17 19 18 16 15 16
6 4 3 4 3 3 3 2 2 3 2 3 4 3 3 4 4 5 5 3 4 5 5 3 5 5 3 1 1 3 5 5 6 5 2 2 3 3 2 2 1 2 4 4 3 2 4 4 3 4 4 3 2 3 3 5 3 3 3 4 7 5 3 3 3 3 6 7 7 6 6 4 10 15 16 17 18 18 17 16 16 17 19 19 19 17 15 14
Wind_Direction
287 290 292 295 299 303 306 309 311 312 314 316 317 318 318 319 319 319 322 322 325 323 321 325 327 326 325 323 324 323 320 318 315 309 284 271 280 275 269 272 272 257 256 267 234 224 131 152 148 151 153 148 183 164 167 163 147 181 181 202 221 211 195 177 182 184 112 340 295 343 0 341 353 63 78 92 121 131 127 91 94 90 84 110 124 136 140 140
289 285 287 290 293 297 300 303 306 309 311 313 315 315 316 318 317 318 320 321 322 321 321 322 325 327 327 326 326 324 321 318 308 288 277 286 323 304 275 264 259 250 246 256 226 195 166 173 157 152 152 161 185 156 176 169 182 196 154 214 227 193 173 182 190 194 240 298 314 324 19 343 340 91 108 132 142 143 138 124 118 109 107 118 126 135 138 141
298 287 284 284 287 291 294 298 301 304 307 310 312 313 315 315 315 317 317 319 320 320 321 322 326 328 329 329 325 326 323 318 301 272 277 33 356 327 293 264 251 239 230 229 206 184 183 184 166 158 150 164 169 169 182 172 190 197 174 228 228 171 190 214 207 224 233 271 306 310 354 331 324 192 173 157 163 170 160 146 141 138 135 134 135 137 141 144
306 295 286 283 282 284 288 293 296 300 303 306 309 310 312 313 314 315 315 316 316 317 320 322 326 326 329 328 322 327 325 310 282 165 89 38 354 342 297 268 247 228 213 193 173 167 164 156 161 155 150 169 154 169 184 183 183 169 196 230 187 160 213 212 206 238 249 243 282 305 311 308 327 258 199 158 169 196 186 172 161 158 150 145 145 143 145 148
309 302 294 287 282 282 284 286 291 295 298 303 305 307 310 313 314 313 314 312 313 318 321 322 324 328 329 327 323 327 323 294 147 117 57 11 357 352 304 271 241 221 198 185 185 168 146 136 148 143 155 167 156 169 192 189 168 172 209 239 97 155 209 212 202 231 244 234 273 300 309 311 313 257 194 173 182 199 188 188 174 161 155 149 147 146 148 151
311 307 300 293 286 282 282 282 285 289 294 299 300 304 307 312 312 310 312 313 315 316 319 319 322 328 329 327 325 326 304 270 84 115 26 2 358 2 341 280 230 210 188 182 182 170 159 142 158 165 168 167 175 181 184 181 181 215 215 201 179 180 211 245 229 219 176 305 292 291 310 319 295 259 189 185 194 0 158 151 142 152 154 149 144 146 153 157
315 310 306 301 293 284 282 278 279 283 287 291 296 301 303 308 309 309 313 315 315 315 317 316 318 326 331 333 328 336 245 275 274 251 329 339 352 7 6 350 201 191 177 171 165 168 165 161 171 162 164 169 187 190 169 173 195 236 225 178 211 208 233 249 262 273 330 268 276 294 319 292 265 247 179 183 143 110 149 133 137 149 150 150 148 151 159 164
318 314 312 308 300 290 284 277 276 278 280 286 289 294 297 303 305 308 314 313 312 312 313 312 315 324 331 340 336 326 262 256 259 261 286 305 342 4 13 38 167 177 175 173 167 169 163 165 169 149 179 183 179 186 167 172 195 231 226 158 198 201 231 241 262 271 270 258 265 293 295 286 256 187 144 149 124 140 143 137 143 149 152 156 158 158 163 167
321 319 316 311 307 299 290 279 276 274 275 281 285 289 293 299 302 306 311 310 310 307 308 309 311 320 330 344 334 302 261 244 254 258 275 302 329 347 3 35 154 175 182 183 170 166 167 173 174 165 192 174 174 182 173 192 200 220 216 210 242 250 250 236 253 256 258 260 245 284 281 106 137 149 144 150 145 144 142 146 149 151 157 161 163 165 167 165
325 323 319 314 313 307 297 286 278 274 273 277 282 288 290 294 297 300 305 307 308 303 304 307 308 317 325 337 318 279 260 273 252 238 287 314 321 327 339 16 147 188 203 187 170 167 176 183 173 170 187 158 175 174 171 197 185 180 198 225 245 258 271 239 250 252 270 268 225 243 248 133 137 211 175 160 148 149 147 151 154 155 161 164 166 167 166 161
325 324 321 317 316 312 306 296 286 276 271 273 278 285 288 290 292 297 302 302 304 303 303 303 304 306 299 288 257 253 249 222 235 286 310 312 314 313 313 332 262 212 212 193 180 178 184 183 163 157 177 161 166 160 178 192 141 149 173 220 237 251 257 221 249 254 246 268 214 206 212 157 235 287 188 159 151 157 152 155 160 159 162 165 165 161 160 160
323 324 322 319 319 316 311 305 295 281 273 271 275 280 285 286 289 296 300 300 303 302 302 301 299 293 280 265 243 240 250 264 284 300 303 304 305 302 302 302 272 209 194 194 196 184 173 159 166 175 160 158 157 153 190 169 139 162 157 236 233 252 244 210 229 233 197 238 173 170 180 183 215 285 162 154 156 163 156 160 163 160 161 161 158 147 145 152
321 322 322 321 320 318 315 309 302 293 283 274 274 276 280 283 286 292 296 299 303 303 300 296 295 293 273 262 248 251 267 283 291 296 296 297 299 296 297 289 248 183 183 194 197 184 170 146 155 166 104 162 155 137 151 117 152 173 147 250 243 255 246 197 194 176 190 228 145 174 220 176 167 12 168 159 160 163 157 164 164 160 159 153 138 117 93 72
320 320 319 319 319 318 316 311 307 304 293 281 274 273 277 282 284 289 290 288 297 305 300 292 293 291 265 262 273 273 278 285 286 288 291 292 292 290 281 258 201 168 174 178 173 169 176 162 90 111 169 227 143 102 106 93 168 165 147 212 226 232 224 122 160 168 192 213 133 193 239 138 100 81 148 140 135 159 161 164 164 161 157 144 130 124 110 87
319 318 317 316 316 315 314 313 310 307 302 291 279 275 276 280 283 285 285 284 288 295 296 295 284 273 276 276 280 284 284 281 278 281 292 280 266 272 250 206 181 172 172 165 155 151 159 150 120 149 197 138 130 185 147 113 149 154 184 190 184 214 216 3 192 184 197 153 119 206 222 112 85 80 103 113 105 148 177 169 167 166 157 144 143 145 138 128
316 317 315 315 314 312 311 311 310 308 307 300 285 278 276 276 279 281 285 286 284 282 286 289 257 230 271 285 287 290 274 253 266 284 298 264 241 209 149 152 145 152 166 159 144 141 140 136 141 210 184 159 177 170 139 160 178 173 214 187 158 198 210 324 173 213 231 136 138 229 236 116 110 128 135 150 155 161 185 178 173 168 156 148 153 149 140 145
313 314 313 313 312 310 309 308 308 309 308 303 293 283 277 277 281 286 290 286 274 263 252 254 232 216 248 276 295 293 268 252 264 288 290 277 233 185 159 137 128 135 135 127 128 130 130 146 164 195 206 182 174 168 174 200 193 172 198 163 145 195 198 199 167 295 272 179 174 201 240 115 136 159 158 169 171 166 176 176 174 167 153 141 139 148 147 150
309 310 309 310 310 309 308 305 305 307 308 305 297 285 282 286 289 291 293 275 239 233 238 243 232 223 238 253 272 277 288 295 294 288 275 271 206 180 184 155 135 139 123 111 129 137 144 180 175 180 198 189 184 187 189 193 170 155 170 165 168 189 194 207 180 96 219 197 177 184 195 132 154 165 159 177 184 180 177 172 170 149 112 70 68 120 144 137
306 306 306 307 307 307 306 304 303 305 308 307 299 290 291 294 287 284 245 153 147 166 228 209 193 214 311 221 234 281 297 298 295 279 242 205 174 174 193 167 132 148 147 142 159 165 157 144 171 199 202 188 185 189 174 116 140 153 165 169 165 172 192 218 202 187 213 185 172 189 180 147 170 178 172 183 189 192 179 163 144 96 76 62 40 13 98 126
302 301 302 302 303 305 303 302 303 303 307 307 301 296 295 288 270 251 164 179 199 230 260 189 195 236 308 272 202 339 321 306 312 266 182 165 159 158 181 155 127 156 175 158 154 164 164 174 200 204 189 166 166 171 140 89 139 146 155 170 165 177 188 210 211 171 218 195 176 184 158 152 181 185 178 178 182 196 179 137 78 67 72 84 76 340 352 106
297 296 297 298 298 300 300 301 301 300 304 301 282 277 264 192 251 318 239 233 229 232 246 228 206 228 255 245 26 20 3 329 319 278 227 183 162 162 172 160 156 176 178 145 131 132 182 203 206 178 143 146 152 149 123 101 122 139 161 174 178 193 182 196 225 19 252 208 164 130 150 158 187 188 175 167 171 192 168 116 86 87 101 110 127 141 6 22
299 296 295 294 294 295 296 297 295 295 299 283 244 242 238 234 251 291 279 269 247 228 234 237 223 232 244 245 265 344 355 301 296 288 212 181 186 186 172 166 172 171 152 145 136 147 200 212 160 124 129 137 139 146 139 123 118 132 160 169 180 190 192 225 249 10 0 211 164 167 160 148 167 169 152 145 139 104 103 118 119 127 134 136 146 142 131 128
302 300 297 296 294 292 293 294 291 290 285 254 223 224 233 231 237 311 262 272 275 235 221 227 225 230 238 243 245 234 237 239 257 285 190 175 190 201 176 171 167 155 159 176 174 169 198 194 137 131 139 139 147 164 159 143 128 124 145 164 173 163 192 205 195 13 22 48 130 160 146 119 118 92 84 99 105 90 107 120 122 130 138 152 157 141 140 139
304 302 300 298 297 293 294 294 289 282 270 249 233 229 233 240 263 301 277 264 283 250 218 215 215 226 229 225 201 193 208 213 220 262 190 176 167 162 186 166 150 160 176 180 180 178 167 127 134 138 144 147 155 169 174 182 180 153 147 156 143 136 168 186 12 338 28 72 129 145 135 123 169 147 102 100 112 102 118 122 118 128 137 148 142 134 144 143
306 304 302 301 301 295 295 295 287 275 262 247 244 242 240 249 255 254 226 272 274 256 219 206 206 226 207 178 167 176 195 214 221 234 192 183 172 148 171 168 162 175 170 155 167 188 162 129 146 147 152 155 156 171 180 185 185 186 204 200 161 136 119 44 7 314 172 176 140 159 193 158 174 180 145 129 131 114 125 133 136 148 151 155 146 139 148 152
306 304 303 303 301 298 297 296 281 267 250 231 232 226 208 213 196 181 169 285 268 227 166 170 186 188 168 164 165 156 165 217 221 216 209 200 188 165 159 169 186 168 154 144 164 200 162 165 167 156 153 155 161 176 180 178 183 196 191 190 196 150 108 62 10 53 190 212 77 314 237 167 157 193 168 146 145 137 140 140 145 159 164 166 155 145 154 160
308 302 302 302 298 296 288 278 281 268 240 214 210 190 187 206 171 167 180 267 263 174 140 140 205 176 164 166 164 156 158 156 178 194 208 210 192 202 188 169 159 148 141 143 182 204 148 162 179 163 155 163 172 176 180 181 182 183 161 166 185 181 148 123 44 35 353 312 302 122 245 216 171 187 169 153 149 146 150 146 148 163 173 172 161 155 162 164
311 302 300 298 293 285 264 262 273 250 204 144 137 269 250 172 159 168 203 249 225 120 128 131 163 160 145 161 169 174 132 123 131 174 192 203 194 184 199 185 161 146 152 171 178 157 144 168 180 165 163 178 175 149 159 174 173 166 160 162 175 173 160 152 202 264 33 334 240 164 154 219 196 154 166 160 156 159 159 155 156 167 175 174 167 167 169 166
318 308 301 296 292 281 261 251 243 240 233 188 2 321 216 141 143 175 238 241 155 101 112 125 140 144 119 153 183 219 344 133 189 145 165 193 209 220 194 183 148 140 153 187 170 115 157 179 174 168 175 179 150 131 156 174 170 144 147 139 136 145 137 146 238 259 18 276 244 168 163 213 213 158 180 173 170 176 170 164 168 174 180 178 172 170 164 157
330 318 304 294 294 284 257 242 239 248 249 238 284 310 133 126 146 184 198 237 159 74 115 132 137 148 140 151 192 228 270 336 85 119 142 173 192 227 120 106 133 138 134 171 169 136 81 157 166 176 179 155 139 145 165 171 143 131 136 119 103 108 99 87 341 0 256 257 228 150 169 212 228 183 184 184 178 179 176 171 173 177 184 184 175 168 158 147
345 331 313 298 294 275 240 245 249 248 231 226 265 278 129 122 234 189 171 228 19 85 128 136 122 138 152 159 185 206 231 312 132 145 153 160 176 193 154 132 147 142 141 173 181 154 110 138 166 183 156 136 137 155 168 157 141 141 139 132 133 125 117 145 114 149 234 236 159 142 170 196 223 200 181 195 186 181 180 172 173 178 184 185 175 165 156 147
350 341 324 301 289 260 244 258 247 184 176 201 251 227 158 206 225 201 252 332 56 88 69 125 136 148 163 168 168 179 192 224 164 162 157 162 174 185 175 168 163 161 173 177 166 143 137 148 169 158 160 155 147 154 167 156 160 162 149 154 165 165 167 194 191 194 225 218 90 154 174 190 227 194 179 195 192 191 188 173 174 179 179 180 171 157 154 152
346 343 333 311 296 269 258 256 200 142 113 204 230 189 184 247 219 201 256 343 52 22 21 94 141 160 169 175 157 165 177 141 166 169 160 159 164 182 229 201 153 155 160 155 151 154 154 154 206 167 166 174 165 166 174 172 177 176 167 173 181 171 176 195 195 207 227 176 70 128 169 208 223 97 189 200 196 197 191 174 175 177 175 174 162 144 147 149
343 344 336 319 304 279 266 253 205 200 343 302 201 144 201 252 275 184 194 12 28 340 339 335 322 164 170 189 148 155 177 207 170 168 159 160 167 181 201 193 165 90 110 142 161 169 165 168 185 175 155 175 180 180 167 154 169 182 172 181 188 180 187 195 191 206 200 130 86 122 171 221 165 91 255 233 224 197 174 155 162 169 166 160 146 136 139 138
343 346 340 326 314 289 260 230 200 216 286 285 168 163 210 242 335 27 110 5 9 344 322 305 249 153 167 212 149 163 189 212 170 169 163 168 172 175 181 178 181 139 141 157 173 167 163 138 163 184 149 171 180 178 138 150 170 186 150 178 197 187 155 137 180 211 110 122 138 167 192 308 70 342 283 203 166 163 151 145 151 152 146 146 145 148 146 135
344 351 359 8 350 328 245 208 198 208 240 236 151 183 240 296 328 331 5 13 18 336 319 309 117 118 151 156 158 180 206 139 162 171 158 162 167 169 175 160 169 182 160 155 138 162 160 123 145 202 203 185 176 157 169 179 169 152 176 189 179 131 121 127 103 46 52 207 188 165 152 120 197 258 147 147 155 155 150 149 150 147 148 154 155 154 146 133
345 354 15 21 5 356 310 197 196 206 228 213 165 200 301 339 283 300 1 17 13 315 323 359 66 39 132 150 150 179 187 138 159 174 156 159 166 166 170 163 167 177 156 142 115 200 166 129 148 191 187 199 178 163 186 201 153 153 189 176 118 80 88 162 157 141 201 217 203 134 156 168 188 181 144 144 149 151 151 150 149 149 154 158 154 147 142 138
341 351 45 28 2 343 285 173 183 211 239 192 214 245 37 304 286 330 43 32 3 317 344 36 34 11 88 128 116 168 176 154 162 169 156 167 179 164 166 169 175 169 160 156 140 201 188 137 146 201 186 172 160 174 186 199 213 184 169 151 139 180 197 179 173 177 190 211 217 142 151 186 204 169 147 151 156 157 155 152 154 159 159 156 150 146 142 139
339 355 113 0 341 312 180 160 173 221 246 172 201 247 308 288 298 352 78 79 20 342 359 32 22 1 42 65 66 126 165 155 160 156 156 178 195 177 172 161 166 179 179 167 147 154 193 148 158 209 188 154 162 194 191 183 180 126 152 166 190 215 199 184 166 178 188 201 211 182 162 201 210 167 155 164 169 168 164 161 165 168 163 155 150 149 144 137
356 18 91 342 338 160 156 161 187 206 235 193 192 235 292 308 313 356 64 69 18 317 338 9 359 0 29 43 57 61 38 140 159 153 160 179 177 186 186 168 158 173 174 158 155 153 168 163 163 158 143 169 180 202 195 177 166 168 177 188 189 170 182 186 165 78 204 190 183 209 213 196 185 163 166 174 178 177 173 171 173 168 160 155 151 149 144 138
352 71 18 353 39 143 144 152 168 110 273 277 300 262 311 326 318 343 35 56 331 225 262 315 316 332 2 22 34 22 29 119 164 162 139 178 190 210 203 180 159 160 158 156 170 178 153 156 165 157 173 190 170 151 179 180 178 184 191 194 188 168 143 182 197 184 164 189 158 206 227 152 91 176 183 183 184 185 178 170 167 160 153 154 151 147 144 141
341 38 355 1 139 149 142 62 93 15 257 300 341 303 302 310 297 316 342 355 0 223 242 270 266 269 264 302 0 339 333 115 165 178 133 183 202 193 181 176 161 159 160 153 164 178 132 130 158 164 177 186 135 86 195 190 178 184 202 191 176 174 177 196 206 171 142 112 76 136 269 87 66 328 240 201 185 181 174 160 152 150 149 149 146 144 143 140
2 3 348 358 163 166 337 54 103 320 247 299 315 279 274 286 287 309 320 334 355 344 321 293 279 287 54 337 351 353 352 102 172 194 171 189 207 172 161 166 162 163 167 159 161 172 157 144 164 147 127 209 218 35 224 187 171 188 206 182 174 192 195 202 192 136 164 194 176 204 246 163 96 335 279 197 148 156 162 152 146 144 142 144 145 143 141 138
335 313 350 166 181 196 356 36 19 330 264 293 292 275 266 254 268 287 296 312 339 0 353 305 293 339 7 343 330 350 341 321 166 238 240 197 154 115 149 161 166 169 175 177 167 169 168 168 183 162 146 178 191 166 180 192 189 198 193 179 189 179 138 124 112 142 203 201 192 213 223 146 102 350 185 170 152 155 158 150 147 143 138 143 145 142 142 141
315 213 59 127 197 235 341 327 327 323 296 299 287 285 275 232 250 257 255 264 222 193 294 264 287 317 319 322 333 338 321 261 149 326 298 198 99 83 144 163 172 173 179 180 165 161 170 177 188 180 168 179 185 180 185 179 175 190 180 181 191 175 159 159 147 186 214 184 181 213 209 127 148 162 166 170 165 161 157 149 147 145 143 145 145 145 148 148
333 101 91 132 197 253 267 292 309 297 298 307 288 285 276 252 280 256 248 253 219 206 251 254 288 299 276 295 334 345 342 238 212 303 320 195 130 51 134 164 175 177 178 172 159 146 108 182 189 193 184 183 177 156 129 147 161 184 186 185 189 179 168 157 159 199 196 149 186 213 151 136 172 174 172 171 163 157 156 153 150 150 148 146 147 148 146 144
340 23 54 117 216 244 248 266 271 266 296 323 320 318 317 312 311 277 239 246 212 247 259 243 252 271 269 114 258 269 331 295 214 248 293 261 47 31 79 148 180 184 177 166 156 137 121 196 198 194 188 173 113 101 118 170 185 189 183 182 184 175 166 179 201 188 138 157 208 183 131 158 182 179 179 174 163 159 161 160 157 153 150 146 146 145 139 134
0 10 3 342 311 242 255 263 238 245 271 289 309 315 304 300 301 290 278 314 280 241 242 243 226 233 250 259 28 346 304 15 168 218 299 0 37 49 92 105 178 195 177 164 160 147 161 189 200 193 177 127 70 100 140 165 179 178 181 183 182 177 181 199 209 161 148 199 218 153 167 186 181 183 187 181 171 165 160 156 150 145 144 142 143 143 140 140
12 325 294 309 299 267 284 283 236 243 259 251 263 277 281 290 290 273 230 277 307 234 208 244 304 238 236 235 227 345 260 206 81 74 21 22 23 61 115 113 107 197 171 164 168 176 188 183 187 191 156 94 45 16 135 159 143 139 192 201 190 185 192 205 207 167 180 217 154 148 184 198 180 189 188 177 164 150 138 139 142 142 144 144 145 146 146 146
8 292 292 298 279 263 273 267 236 249 255 235 250 259 262 276 282 290 245 210 279 269 183 214 331 3 333 206 200 233 259 289 48 51 25 18 24 29 81 115 113 146 159 165 176 210 212 185 169 181 154 90 33 14 110 165 161 153 200 244 212 196 198 208 204 177 193 215 139 150 186 208 215 173 163 155 149 140 141 149 149 149 151 150 149 149 146 146
333 270 281 298 293 281 268 235 210 248 258 232 242 252 253 260 280 324 315 230 234 251 217 251 330 346 8 142 187 237 263 258 246 264 309 320 331 0 0 327 128 144 156 166 171 184 193 172 107 168 173 134 84 228 169 144 127 156 207 213 203 198 199 209 203 181 192 185 140 151 194 210 173 151 146 149 151 150 154 155 153 156 157 155 153 150 145 145
342 284 279 289 288 290 282 259 209 232 249 226 226 240 260 274 301 332 323 275 243 247 239 275 333 336 335 27 154 256 276 262 258 274 290 269 265 260 257 271 265 126 147 163 157 145 162 152 142 179 182 156 180 233 197 142 139 221 217 185 194 201 194 201 212 214 203 175 152 185 218 182 157 153 151 156 161 162 164 162 160 161 160 158 154 148 144 144
Height
813 813 813 813 813 812 812 811 811 810 809 808 808 807 806 805 804 803 802 801 799 798 797 796 795 794 793 792 790 788 786 783 780 779 777 769 768 769 768 768 769 770 771 772 772 773 774 774 774 775 775 776 778 777 778 778 779 781 786 793 791 788 787 783 782 781 779 777 775 775 776 776 774 771 767 766 769 771 774 774 772 771 770 771 774 778 783 787
811 811 811 811 811 811 810 810 809 809 808 807 807 806 805 804 803 802 801 800 798 797 796 795 794 793 792 791 789 787 784 781 779 775 770 766 767 767 766 766 767 768 770 771 771 772 773 773 774 775 775 776 778 778 778 778 778 780 788 792 784 781 782 779 778 778 778 776 774 774 776 775 772 771 768 773 778 773 776 777 775 776 776 776 777 781 784 787
809 809 809 809 809 809 809 808 808 807 807 806 805 805 804 803 802 801 800 799 798 797 795 794 793 792 791 790 789 786 783 780 775 769 766 765 766 765 764 764 764 765 768 770 770 770 771 771 773 774 775 777 778 779 779 778 778 779 785 788 780 778 780 778 778 777 776 775 774 774 775 774 770 769 767 774 779 774 775 776 776 778 779 779 780 782 784 787
808 808 807 807 807 807 807 807 806 806 805 805 804 804 803 802 801 800 799 798 797 796 794 793 792 791 790 789 788 785 784 779 769 764 764 765 764 763 762 761 762 763 765 768 769 769 770 771 772 773 774 777 779 779 779 777 777 779 781 780 777 778 778 775 776 774 774 775 775 774 774 773 768 767 767 772 778 777 773 770 771 772 773 776 779 781 783 786
806 806 805 805 805 805 805 805 804 804 804 803 803 802 801 801 800 799 798 797 796 795 794 793 791 791 790 789 787 786 784 772 761 762 763 763 762 761 759 758 759 760 763 766 768 769 769 770 771 773 774 777 779 779 778 774 775 779 777 774 775 779 777 773 773 773 773 774 775 774 773 770 767 767 766 768 773 772 768 766 768 769 770 772 775 779 782 784
805 804 804 803 803 803 802 803 803 802 802 802 801 801 800 799 798 797 796 795 795 794 793 792 791 790 789 788 786 786 783 766 758 763 761 761 761 759 757 755 757 758 761 764 766 768 769 769 771 773 774 776 778 777 775 774 775 777 775 775 775 775 775 772 771 772 773 775 774 772 771 769 768 768 765 765 767 765 762 763 767 770 772 773 775 777 780 782
804 803 802 801 801 801 800 800 800 800 800 800 799 799 799 798 797 796 795 794 794 793 793 791 790 790 788 788 785 785 785 770 760 762 760 761 761 758 757 755 756 757 760 762 764 766 767 768 769 771 774 775 777 775 774 774 775 776 775 776 775 773 774 772 771 771 773 774 771 770 770 769 769 768 765 766 766 763 761 761 765 770 774 775 776 777 779 780
803 802 801 800 799 799 799 798 798 798 798 798 797 797 797 796 796 795 794 794 793 792 792 790 790 789 788 787 785 785 782 768 759 760 760 760 760 759 759 757 757 758 759 760 761 763 765 767 767 770 773 773 774 774 773 774 776 776 775 775 773 773 772 770 771 771 772 771 768 769 770 768 767 766 767 769 767 763 761 762 765 770 774 776 777 777 778 780
802 801 800 799 798 797 797 796 796 796 796 796 795 795 795 795 794 793 793 792 792 792 790 790 789 788 788 787 787 784 770 759 758 760 760 759 759 760 760 759 759 760 760 759 759 762 763 764 765 766 768 770 771 771 772 775 775 772 772 773 772 771 770 770 771 770 770 769 767 770 769 768 765 765 769 769 765 764 763 764 766 770 774 776 777 777 778 781
801 800 799 798 796 796 795 795 794 794 794 794 793 793 793 793 793 792 791 791 790 790 789 789 788 788 788 786 788 781 761 755 758 758 759 759 759 759 759 760 760 760 761 760 760 760 761 762 762 763 765 768 770 770 771 772 771 769 770 771 770 770 769 770 770 768 770 767 766 768 769 768 764 766 772 768 764 764 765 767 769 770 774 776 778 779 781 784
800 799 798 796 795 794 793 793 792 792 792 792 792 792 791 791 791 790 790 790 788 789 788 788 787 787 787 786 789 778 758 756 758 757 759 758 758 759 758 759 760 760 760 760 760 760 760 760 761 763 764 766 768 771 771 768 767 767 769 770 770 770 770 770 769 768 769 766 763 765 768 769 766 767 769 765 764 765 766 770 771 772 775 777 779 782 784 787
799 797 796 795 794 793 792 791 790 790 790 790 790 789 790 789 789 789 788 788 787 787 787 787 787 786 786 784 780 768 756 756 757 757 758 757 758 758 757 758 758 759 759 759 759 759 761 761 761 763 763 763 766 771 768 765 767 767 768 771 770 769 768 767 766 766 767 764 761 764 770 772 770 769 767 764 765 766 769 772 773 774 777 779 782 786 789 791
797 796 795 793 792 791 791 790 789 788 788 788 787 788 788 787 787 787 787 787 786 786 785 785 785 784 786 779 768 761 758 757 756 756 756 756 756 755 756 757 756 758 758 758 759 759 761 761 761 762 763 763 765 767 765 765 767 768 769 770 771 772 769 765 765 765 765 763 759 764 774 772 770 771 767 764 766 769 773 774 774 776 778 781 785 789 793 795
796 794 793 792 791 790 789 788 787 787 786 786 785 786 786 785 786 785 786 786 785 785 784 784 784 784 783 772 761 760 759 756 755 754 753 754 754 754 755 755 756 757 757 758 759 760 761 761 762 763 763 763 764 764 766 768 768 769 771 772 775 778 772 764 766 766 763 763 759 764 774 770 771 774 770 770 773 774 775 775 776 777 779 783 787 788 792 794
794 793 792 791 789 788 787 786 786 785 784 784 783 783 783 784 783 783 784 783 783 784 783 783 782 783 781 770 759 757 756 755 754 752 752 753 753 753 752 753 755 755 757 758 759 760 761 762 763 764 764 763 764 766 768 770 769 770 774 778 779 778 773 765 765 764 761 762 761 765 772 771 774 779 776 778 780 781 778 775 775 776 779 783 785 786 789 792
792 791 790 789 788 787 785 785 784 783 782 782 782 781 781 781 781 781 781 781 782 782 782 783 780 782 781 768 757 754 753 753 752 751 751 751 751 752 752 752 754 755 757 757 759 760 761 762 764 765 765 764 766 766 770 773 773 772 773 779 781 778 775 769 765 763 760 761 764 766 769 771 777 780 778 777 776 777 776 774 775 776 780 783 784 785 788 793
790 789 788 787 786 785 784 783 782 781 781 780 780 779 779 778 778 778 778 778 779 779 781 780 779 782 775 761 755 753 751 751 750 750 749 750 751 750 751 752 753 755 756 757 759 760 762 764 765 766 765 766 767 765 772 777 775 776 775 779 783 779 777 773 766 765 762 760 764 766 767 773 778 777 776 775 772 772 773 773 775 777 783 785 785 786 790 795
788 787 786 785 784 783 782 781 780 780 779 778 777 777 777 776 776 775 775 775 776 779 781 779 781 779 763 755 756 752 749 750 749 749 748 749 750 750 751 751 752 754 755 758 760 761 764 765 766 768 768 768 767 764 770 772 771 777 777 777 781 780 778 773 766 766 764 760 764 767 769 778 780 774 775 775 771 772 772 771 774 779 787 793 794 794 794 797
786 785 784 783 782 781 780 779 778 778 777 776 776 775 775 774 774 773 773 774 775 777 775 773 775 767 751 751 754 750 749 749 747 747 747 747 748 749 750 750 752 753 754 757 760 761 762 766 769 768 764 764 764 760 763 767 765 771 774 772 774 775 775 771 767 767 765 762 765 765 768 779 780 774 774 774 772 773 773 774 779 784 790 799 805 805 801 800
784 783 782 781 780 779 778 777 777 776 776 775 774 774 774 773 773 772 772 773 771 768 766 765 765 758 750 751 751 749 749 747 747 746 746 746 747 748 749 749 751 754 754 755 759 759 759 765 765 759 756 759 762 760 762 767 765 767 771 771 771 771 770 768 765 765 764 763 767 767 768 777 777 772 772 773 776 776 774 781 789 791 794 800 807 809 807 805
781 780 780 779 778 777 776 775 775 774 774 773 774 774 773 773 773 771 770 770 766 763 762 760 760 757 751 750 750 751 751 749 746 745 745 746 746 746 746 747 750 754 755 754 757 760 760 761 757 753 755 758 762 763 763 767 768 767 768 769 772 770 767 766 765 765 764 763 769 773 773 777 775 770 772 775 781 781 779 788 794 796 798 799 803 805 806 808
779 778 777 776 775 775 774 774 773 772 772 772 772 772 770 770 770 770 770 769 762 758 758 757 758 755 749 749 751 753 756 756 748 742 743 745 745 744 743 745 748 751 756 755 756 762 762 758 753 754 758 760 764 764 762 766 769 769 768 768 771 771 768 767 764 766 764 761 770 774 773 779 779 775 777 779 784 785 784 789 791 792 796 797 798 798 803 810
776 775 774 773 773 772 772 772 771 770 770 770 770 769 768 768 768 768 770 769 758 751 752 752 752 751 747 748 750 753 758 757 750 742 741 743 744 744 742 742 745 750 754 753 751 758 761 755 752 757 759 761 765 764 763 766 769 770 769 768 771 773 772 768 765 767 767 766 771 772 773 782 785 783 785 785 786 787 786 789 789 790 793 794 795 795 801 808
774 773 772 771 771 770 770 769 769 768 768 768 767 766 766 767 768 768 768 767 757 746 742 742 744 743 742 744 746 751 753 751 748 742 739 741 742 744 742 740 744 749 751 750 750 753 755 752 752 757 757 759 765 766 764 766 769 772 771 768 769 772 771 769 768 768 768 770 769 768 776 786 787 786 790 790 787 787 786 789 793 793 793 794 795 797 801 804
771 771 770 769 769 768 768 768 766 766 765 765 765 764 766 766 766 767 768 766 757 744 738 738 739 738 737 741 744 745 749 748 744 739 738 738 739 741 742 740 742 746 748 752 754 753 754 752 751 755 757 758 763 766 763 763 768 775 773 768 766 769 770 771 770 767 769 772 769 769 777 788 789 786 790 792 789 789 788 791 795 795 794 795 795 798 801 801
769 769 768 768 768 766 767 766 764 764 763 763 763 763 765 764 764 766 767 767 754 737 734 736 735 733 732 737 741 742 746 743 735 735 737 737 736 737 740 741 739 743 747 751 754 753 753 754 751 752 756 758 761 764 762 761 768 774 770 766 766 767 770 771 768 768 773 773 771 772 774 784 793 788 787 791 789 790 790 791 796 795 794 794 794 796 798 798
767 767 766 766 766 765 766 764 763 764 762 762 761 762 764 762 764 765 765 767 750 727 730 737 733 729 728 732 735 736 737 731 729 734 735 735 736 734 737 739 738 743 745 749 755 752 750 755 754 751 754 758 759 761 762 759 766 771 767 765 767 768 771 772 769 771 774 773 773 774 773 779 787 785 784 788 790 792 792 793 796 794 792 793 792 794 795 795
765 765 765 764 764 764 764 763 763 762 762 761 760 762 762 760 764 764 764 762 738 717 723 732 729 727 727 731 731 728 727 724 727 732 732 734 735 734 737 738 737 740 741 744 752 750 747 753 755 751 753 756 755 756 760 760 763 767 765 765 766 767 770 769 770 772 775 777 775 774 776 779 785 786 784 786 790 793 794 795 796 794 791 790 791 791 791 792
764 763 763 763 762 762 762 762 761 760 761 760 761 762 760 761 764 762 763 750 721 710 719 723 726 728 729 733 731 727 726 724 724 728 731 734 734 734 736 736 736 739 741 741 745 748 747 747 749 749 751 753 753 754 758 758 760 762 764 765 766 768 769 770 772 772 778 784 777 772 775 778 785 791 789 789 790 790 791 793 793 792 789 787 789 789 791 793
763 762 761 761 760 761 761 760 759 759 760 760 762 761 759 762 762 760 760 741 716 715 718 719 725 728 730 735 734 730 728 726 725 729 732 733 733 734 733 735 735 738 743 743 743 746 746 745 745 746 747 748 751 755 755 755 758 761 764 767 771 774 773 775 776 775 783 788 776 770 773 774 781 786 786 785 782 779 783 790 791 790 788 787 788 789 791 793
762 761 760 759 760 760 759 759 757 758 760 761 761 760 760 762 759 756 748 728 718 721 718 720 727 726 729 732 731 732 731 728 726 728 730 731 734 734 732 734 736 740 748 748 746 746 747 748 748 745 744 745 750 755 755 754 756 759 761 766 775 780 779 782 783 785 791 786 774 771 771 774 779 779 777 775 771 769 773 782 787 788 787 787 786 788 791 792
762 760 759 759 759 759 759 758 756 757 759 760 761 760 761 761 756 749 734 718 722 727 720 722 726 725 728 727 726 730 729 727 725 724 726 728 732 732 728 728 730 738 747 747 748 749 747 749 749 745 744 742 747 756 760 759 757 756 759 765 776 785 789 792 790 788 787 780 778 778 774 775 774 769 769 768 766 765 764 770 777 779 782 784 785 788 791 793
761 759 759 758 758 758 758 757 757 758 757 758 760 759 761 760 746 734 726 721 728 730 723 722 723 723 726 725 724 728 728 726 724 723 724 726 731 732 729 728 726 731 738 741 747 751 752 753 749 747 747 740 740 749 757 761 756 753 755 759 769 780 791 796 790 786 784 779 781 780 776 776 772 767 768 765 761 760 760 765 771 774 779 782 786 789 792 796
760 759 758 757 757 756 757 757 758 758 758 758 758 758 762 758 737 724 726 727 729 730 726 724 724 723 724 722 721 724 726 726 724 723 725 727 731 731 730 731 729 728 733 741 745 747 753 757 749 745 747 740 738 741 744 750 753 751 748 749 758 766 776 784 780 780 782 779 782 782 777 776 773 772 772 766 763 761 761 767 772 777 781 783 787 791 794 798
759 758 757 756 756 756 755 757 758 758 759 757 756 759 760 751 738 732 731 730 732 732 728 725 723 722 724 724 720 719 720 722 722 723 725 726 728 729 727 729 730 728 730 740 746 744 748 753 745 741 743 739 740 741 738 745 754 754 749 752 757 754 759 775 780 778 778 777 780 780 779 777 773 773 772 768 767 765 764 769 775 781 785 786 790 791 793 798
758 757 756 756 756 756 755 757 757 758 759 756 754 757 755 747 743 740 734 733 737 738 732 726 721 721 725 724 721 719 716 719 721 722 726 727 726 728 728 727 729 728 725 734 745 745 745 749 745 743 744 738 738 741 739 742 750 756 756 755 753 747 751 770 785 786 781 778 776 775 778 780 775 773 772 770 770 769 770 773 777 782 785 786 789 791 794 798
758 756 756 756 756 756 756 757 758 758 758 755 753 753 751 749 746 741 737 737 740 740 734 727 723 724 726 722 721 719 715 718 720 721 726 728 726 727 727 727 728 726 723 728 739 742 742 747 746 743 744 740 736 738 739 737 741 752 757 750 748 753 754 760 776 785 783 778 775 776 781 780 774 774 775 774 775 774 774 776 779 782 784 787 789 791 794 797
757 757 757 757 757 757 757 757 758 759 757 756 754 750 750 750 744 739 739 740 741 739 734 731 728 726 726 723 722 719 715 717 720 720 725 726 726 725 724 726 726 724 723 723 732 738 738 745 749 741 740 741 738 740 743 742 740 743 746 741 745 759 762 762 771 778 780 779 776 778 784 778 769 770 775 776 777 777 775 777 780 781 782 785 789 791 794 797
757 756 757 758 757 757 757 758 758 758 757 756 756 752 751 751 744 739 740 741 743 741 736 735 733 728 726 725 725 723 717 716 717 719 723 724 724 722 719 723 725 724 723 720 727 736 734 742 749 741 737 740 740 743 745 746 745 741 740 741 745 750 752 757 764 764 767 775 775 776 782 775 761 762 770 772 771 772 773 775 776 777 779 783 786 789 793 797
757 757 758 757 757 756 757 758 758 758 756 755 755 752 750 749 744 739 739 740 742 742 737 737 736 732 729 726 725 724 720 717 716 717 720 720 722 723 718 718 721 725 723 719 726 735 734 740 746 743 742 742 741 741 738 740 745 744 743 746 747 748 747 751 759 759 758 767 773 774 773 766 756 754 759 761 761 762 764 768 771 773 776 781 785 788 792 797
758 759 758 757 757 757 758 759 759 759 757 754 753 751 749 747 745 741 739 738 741 741 738 738 738 736 733 729 726 725 722 718 714 714 716 717 719 721 718 714 716 722 724 723 726 732 734 739 742 744 745 743 738 735 731 732 737 738 741 743 742 746 750 755 763 764 760 761 767 769 765 760 757 755 752 751 752 754 757 764 769 772 777 782 784 788 792 796
759 759 759 758 758 758 758 759 759 759 758 754 753 752 749 747 746 743 739 738 739 739 737 738 738 736 734 731 729 729 725 718 714 712 712 713 713 713 713 712 712 715 721 724 725 728 731 736 741 744 744 740 736 736 733 730 731 735 737 739 741 743 745 751 758 761 763 765 765 766 764 759 760 761 756 750 750 753 759 765 770 775 780 783 786 789 793 796
761 761 760 759 759 759 759 759 758 758 757 754 752 751 749 747 745 742 740 740 740 738 737 738 737 733 732 730 729 730 726 718 715 711 709 709 708 708 710 711 711 712 717 722 724 726 729 734 740 743 743 740 737 737 735 731 734 739 737 737 740 740 738 742 748 752 760 764 763 765 766 761 760 763 758 753 754 757 762 768 772 777 782 785 788 791 794 798
763 763 761 760 760 760 760 759 759 758 756 753 752 750 747 745 744 742 742 741 740 740 741 740 737 732 731 729 728 730 726 720 717 713 710 709 707 707 709 710 711 711 713 718 720 721 728 735 738 742 748 749 744 743 742 738 735 735 734 735 736 736 741 746 750 752 754 752 753 758 762 761 761 762 758 756 758 761 766 771 774 778 783 786 789 791 794 797
763 762 762 761 761 761 761 760 760 759 755 753 753 750 746 744 742 740 741 741 739 740 742 740 736 734 733 729 728 730 727 723 721 716 713 711 709 709 710 709 711 710 710 713 714 717 728 735 735 737 745 749 746 743 740 737 734 732 732 734 734 736 741 744 749 754 752 750 751 749 754 764 766 762 760 760 762 765 768 772 776 779 783 786 790 792 795 797
763 762 762 763 762 763 762 760 760 760 756 754 754 749 746 745 742 738 739 739 738 739 741 739 735 733 733 731 731 731 727 725 724 721 716 712 708 710 712 710 709 709 710 712 713 718 728 733 731 731 733 734 733 732 731 731 733 735 734 734 733 736 737 739 747 750 746 751 752 744 748 765 769 764 761 763 766 769 770 773 776 779 782 786 790 793 796 800
764 763 762 763 763 763 762 760 760 759 756 754 752 748 746 745 742 739 738 738 739 740 740 738 735 733 731 732 733 731 727 725 725 723 719 713 710 711 714 713 710 708 709 712 713 719 728 731 730 729 730 728 727 729 732 732 730 732 734 734 735 738 739 740 743 741 740 747 750 748 751 757 761 763 761 761 765 768 770 773 775 778 781 785 790 793 798 802
764 764 764 762 761 759 758 758 758 757 756 754 751 748 746 745 743 741 740 740 740 741 739 737 734 733 731 730 731 731 728 725 723 721 718 714 713 712 711 714 714 710 710 713 713 716 723 729 731 732 732 732 733 735 736 734 732 732 733 732 733 739 740 737 736 737 740 740 739 747 751 746 748 756 755 755 759 762 767 772 774 778 782 786 790 794 798 802
765 765 764 762 760 757 755 754 754 754 754 753 751 748 746 745 743 741 741 742 741 739 739 737 732 729 729 729 730 731 727 722 719 720 718 716 716 713 711 714 716 712 711 714 716 718 720 725 729 730 732 737 741 741 739 738 737 737 738 737 733 735 736 733 733 737 737 734 734 744 749 743 743 747 748 753 759 761 768 774 776 781 785 787 791 794 797 801
768 767 764 763 761 757 755 754 753 752 751 750 748 745 743 743 741 738 738 741 741 738 737 737 731 726 728 729 729 729 725 721 720 720 720 719 718 717 715 714 714 714 713 714 717 719 720 727 732 729 732 740 745 745 744 741 738 738 744 748 740 735 735 732 732 736 737 736 739 746 750 748 745 745 748 755 760 763 770 775 777 781 784 787 791 794 797 801
768 767 765 764 759 753 752 752 751 751 749 747 746 743 741 740 738 737 735 734 736 735 733 732 730 727 727 729 729 726 722 721 721 719 719 719 719 719 718 716 715 715 714 714 718 717 718 731 737 730 732 740 744 746 744 740 738 738 741 747 743 737 735 732 730 734 735 735 742 749 749 746 746 747 751 757 761 765 771 774 777 780 782 785 790 794 797 801
767 765 764 764 759 751 750 750 750 750 747 743 742 740 738 736 734 736 737 732 731 731 730 730 730 730 729 728 726 723 720 720 719 717 718 720 720 720 719 718 716 715 715 715 717 718 718 726 732 730 732 738 742 744 740 734 736 737 736 742 743 738 736 734 733 735 732 729 738 741 735 733 740 748 754 758 761 764 767 769 772 776 780 784 787 792 797 800